Wind_Speed
8 10 18 14 10 10 21 22 26 29 31 29 21 19 25 29 33 33 35 34 31 29 24 24 23 21 18 12 8 19 23 24 29
9 10 14 6 8 20 26 27 28 28 13 10 6 5 13 25 37 37 38 34 32 30 26 24 18 19 19 14 15 33 29 29 27
7 8 11 7 11 14 24 28 26 21 19 22 28 35 38 37 35 42 40 39 35 31 27 25 25 22 22 24 20 15 27 21 24
8 8 6 3 9 17 26 30 28 25 24 20 26 35 44 38 36 39 39 40 36 34 30 25 25 23 24 23 23 21 13 10 16
4 2 3 5 9 17 22 29 30 25 24 24 30 24 43 43 31 36 38 35 32 29 30 31 28 28 26 23 17 10 8 7 15
6 4 4 5 8 10 14 20 24 21 20 26 26 30 32 31 24 31 35 34 30 27 25 23 23 21 23 23 19 16 11 16 21
7 6 7 5 4 8 13 15 18 18 13 13 14 15 19 20 27 32 33 29 29 28 25 22 22 20 19 21 19 21 23 22 27
8 7 7 8 8 8 15 14 16 17 19 15 18 24 29 35 33 30 27 26 26 24 23 23 22 21 20 21 22 23 24 27 29
14 12 10 8 7 10 15 20 20 19 22 22 16 16 9 7 12 15 12 16 19 19 19 17 18 19 20 22 24 26 27 26 25
15 14 12 10 8 11 16 19 18 17 13 9 10 9 4 1 3 6 8 11 15 16 16 16 19 17 18 23 26 28 26 24 22
10 9 7 6 8 11 11 12 12 10 10 7 7 2 2 1 0 3 6 8 9 11 11 13 15 18 19 23 24 21 19 18 17
6 8 10 16 20 18 14 12 12 14 12 13 14 15 15 14 12 9 8 8 7 9 11 11 13 15 18 21 24 22 17 17 17
9 16 21 22 23 24 24 21 21 19 13 10 11 10 10 10 10 10 11 11 11 10 11 12 15 18 20 23 26 23 19 17 19
14 19 23 24 22 21 19 16 15 15 11 8 5 5 6 7 9 9 10 11 13 14 15 17 18 19 20 21 24 28 23 22 22
11 15 21 24 23 18 15 14 13 11 8 4 2 5 9 11 12 11 11 12 13 14 17 21 24 23 24 24 25 25 26 26 28
7 14 16 16 20 17 13 11 8 6 3 1 6 10 13 17 17 16 15 16 18 18 20 19 21 23 24 25 23 23 23 26 26
6 12 15 15 14 10 6 2 2 4 6 8 10 13 16 17 19 21 21 20 20 20 20 20 22 24 24 27 29 27 25 23 23
13 13 12 11 7 5 6 5 5 6 7 9 12 15 18 20 22 24 26 27 28 27 26 25 26 25 25 25 24 27 28 27 27
19 18 13 10 9 8 5 3 3 5 8 10 11 13 15 18 21 23 24 26 29 29 29 30 31 32 33 36 37 36 35 33 30
9 6 7 6 6 4 3 1 4 6 10 13 16 18 19 20 21 22 24 26 25 22 30 30 33 35 36 37 38 37 36 30 31
Wind_Direction
138 187 213 199 207 190 187 169 201 205 209 212 223 230 246 249 241 239 237 239 244 252 257 260 257 259 263 264 312 331 307 297 275
195 214 236 139 185 204 182 168 186 195 178 162 151 349 301 275 262 257 251 250 253 254 256 264 259 252 254 251 312 310 302 299 280
232 261 270 156 193 173 151 165 173 160 167 208 214 254 276 279 283 261 259 257 254 257 261 266 270 255 255 265 272 285 303 298 268
207 228 269 305 150 144 144 156 162 182 184 182 196 216 253 263 275 268 257 255 261 264 264 263 265 262 263 263 270 286 275 295 266
179 320 14 64 102 136 152 161 182 197 171 199 197 197 221 245 267 264 265 262 266 269 266 265 265 266 262 259 265 259 240 220 282
166 167 102 107 112 134 166 188 206 218 185 183 202 210 220 240 257 259 262 263 267 268 265 261 260 263 267 258 266 241 240 230 262
177 165 157 163 159 192 200 218 239 242 231 230 226 233 237 267 260 250 260 263 268 268 261 255 254 258 260 259 259 235 236 257 274
162 168 179 185 174 198 210 227 246 257 263 264 244 261 264 272 265 260 262 267 269 265 254 254 252 257 254 259 257 245 242 253 270
171 177 187 195 194 189 203 216 231 243 253 257 266 272 257 266 246 247 261 262 258 249 242 243 248 251 258 260 263 262 264 270 272
169 175 179 185 193 199 206 213 212 221 224 202 205 211 214 255 324 301 278 257 240 239 248 253 255 258 259 265 275 282 282 279 277
161 153 147 139 149 173 194 200 196 173 177 192 183 131 176 20 273 305 287 263 254 250 250 261 267 269 269 274 276 282 280 276 275
138 139 134 131 132 132 133 140 140 133 111 100 87 71 60 51 44 26 8 356 310 286 269 271 279 285 284 280 284 288 278 274 268
122 133 141 137 127 119 114 117 117 108 103 88 72 63 48 29 19 9 357 349 343 347 341 317 300 289 287 287 290 293 281 277 275
139 139 138 134 130 122 122 120 111 104 105 90 73 40 13 4 354 347 336 327 327 325 324 320 316 308 299 295 288 287 287 277 274
137 140 142 138 133 132 134 129 120 116 108 98 34 343 335 336 335 332 325 320 319 316 314 313 308 305 300 294 289 285 284 282 280
148 150 148 145 136 131 130 125 103 106 138 300 315 320 324 326 323 317 312 309 306 304 306 304 303 305 302 300 298 292 289 287 285
125 135 135 137 136 133 128 124 298 314 316 310 304 301 303 303 301 304 304 302 301 299 296 293 295 293 292 296 301 300 299 297 295
146 151 156 166 165 186 236 236 264 294 300 297 292 291 291 294 297 297 297 293 291 288 287 286 288 283 281 281 281 286 291 293 293
166 183 190 197 212 220 223 240 274 298 304 304 304 304 307 307 304 302 300 298 297 293 287 285 285 283 280 285 282 288 287 282 286
181 195 186 187 180 176 213 256 307 312 310 302 298 301 303 306 306 304 300 292 284 280 290 287 285 283 280 278 279 283 281 282 287
Height
778 780 773 776 782 789 789 795 802 805 803 809 819 828 835 836 832 829 828 827 828 830 832 832 835 835 836 837 838 839 838 836 837
778 776 771 779 778 779 782 789 792 799 812 819 822 830 831 830 832 831 828 829 828 826 828 830 830 830 828 828 829 829 829 830 829
780 776 772 776 775 776 778 783 788 796 801 810 806 811 819 822 825 825 825 826 821 821 824 826 825 824 823 823 822 818 817 819 822
780 777 774 770 770 775 778 781 786 789 788 795 799 799 803 814 824 820 820 820 817 816 821 822 821 820 818 817 816 815 811 813 816
775 774 774 775 775 778 780 782 784 786 793 799 798 797 808 816 818 813 811 812 811 812 814 816 817 816 814 814 813 810 808 807 814
779 780 780 780 781 783 785 786 787 791 797 800 803 808 809 807 807 809 807 807 807 809 810 812 813 811 809 810 810 809 807 805 805
779 780 781 782 782 782 783 783 782 782 786 790 793 796 798 801 801 802 801 803 803 803 806 807 808 808 806 806 807 807 807 805 801
780 781 782 781 782 782 783 783 783 783 784 787 793 795 796 794 794 797 797 798 798 800 802 803 805 804 802 803 803 803 804 804 803
778 778 777 777 777 778 780 780 782 784 785 788 790 792 791 791 791 792 792 794 796 796 798 799 799 798 798 798 798 798 800 801 800
770 772 773 775 776 777 780 781 780 782 786 788 790 789 788 788 790 790 793 793 793 794 795 796 795 794 794 793 792 791 792 794 793
767 770 774 777 779 780 782 783 785 786 787 789 791 790 791 792 795 794 793 792 791 792 792 791 790 790 789 789 788 788 789 789 788
764 768 773 777 780 782 783 785 787 787 789 790 791 793 793 794 792 791 791 791 790 792 791 788 786 784 785 784 783 784 785 785 785
766 769 773 776 779 782 785 789 791 792 794 794 794 796 797 796 795 794 793 792 791 791 789 787 785 782 781 780 777 778 779 781 780
765 768 772 775 778 780 783 786 788 790 793 794 795 796 796 796 795 794 793 791 789 787 785 783 781 779 778 776 775 773 774 776 776
768 771 774 775 778 781 783 784 785 788 790 792 793 793 793 793 792 791 789 787 785 784 782 780 777 775 773 772 771 770 768 769 769
772 772 774 777 779 781 783 783 783 785 787 788 789 789 788 787 786 785 784 783 781 779 777 775 772 770 768 766 765 764 763 762 762
775 775 775 777 779 780 781 781 782 782 783 784 784 783 783 783 782 780 779 778 776 774 772 770 767 765 763 761 759 757 757 756 756
771 775 776 777 777 777 779 779 781 781 781 780 780 779 778 777 776 774 772 770 769 766 764 762 760 758 756 754 751 750 749 750 750
768 772 775 776 778 778 778 778 779 778 777 776 775 774 773 771 770 768 766 763 759 758 756 754 753 751 748 745 742 741 740 740 740
769 773 771 774 777 778 777 775 776 775 774 773 771 769 768 766 765 762 760 756 753 748 745 744 742 739 737 735 733 732 731 731 730